Location: ?????? ??????
(44.3742°N, 135.2221°E)
Time: 07:44:23
(UTC+00:00)

CZ-2D R/B - Pass Details

Date: 19 May 2025
Orbit: 790 x 841 km, 98.8° (Epoch: 16 June)

Event Time Altitude Azimuth Distance (km) Brightness Sun altitude
Rises 17:04:04 0° 17° (NNE) 3,404 6.8 -19.3°
Reaches altitude 10° 17:06:29 10° 21° (NNE) 2,467 5.8 -19.1°
Maximum altitude 17:11:54 59° 101° (E) 969 2.6 -18.6°
Enters shadow 17:15:19 22° 174° (S) 1,735 3.4 -18.2°
